Home > Weather > Ravensburg > Past weeks

Flag for Germany Past Weather in Ravensburg, Baden-Württemberg, Germany — Yesterday and Last 2 Weeks

Now
61 °F

Fog.


Feels Like: 61 °F
Forecast: 60 / 79 °F
Wind: 3 mph from North

Location: Friedrichshafen Airport

Current Time: Jul 28, 2016 at 8:46:59 AM

Latest Report: Jul 28, 2016 at 7:50 AM


Visibility: N/A

Pressure: 30.09 "Hg

Humidity: 100%

Dew Point: 61 °F

Location of RavensburgLocation

Past Weather in Ravensburg — Graph

°F

Ravensburg Temperature Yesterday

Maximum temperature yesterday: 75 °F (at 1:20 PM)
Minimum temperature yesterday: 61 °F (at 5:20 AM)
Average temperature yesterday: 67 °F

High & Low Weather Summary for the Past Weeks

 TemperatureHumidityPressure
High90 °F (Jul 20, 6:20 PM)100% (Jul 13, 9:20 PM)30.36 "Hg (Jul 13, 9:20 PM)
Low46 °F (Jul 16, 3:20 AM)35% (Jul 20, 3:20 PM)29.95 "Hg (Jul 22, 12:50 PM)
Average66 °F79%30.13 "Hg
* Reported Jul 13 7:20 AM — Jul 28 7:20 AM, Ravensburg, Weather by CustomWeather, © 2016

Note: Actual official high and low records may vary slightly from our data, if they occured in-between our weather recording intervals... More about our weather records

Advertising

Ravensburg Weather History for the Previous 24 Hours

Scroll right to see more
 ConditionsComfort  
Time TempWeatherWind HumidityBarometerVisibility
7:20 AM
Thu, Jul 28
61 °FFog.3 mph94%30.09 "HgN/A
6:50 AM59 °FPassing clouds.3 mph100%30.09 "HgN/A
6:20 AM57 °FCool.3 mph100%30.09 "Hg6 mi
5:50 AM57 °FCool.1 mph100%30.09 "Hg2 mi
5:20 AM59 °FCool.1 mph100%30.09 "Hg2 mi
4:50 AM59 °FCool.3 mph94%30.09 "Hg1 mi
4:20 AM59 °FCool.2 mph100%30.09 "Hg4 mi
3:50 AM61 °FPassing clouds.3 mph100%30.09 "HgN/A
3:20 AM61 °FPassing clouds.3 mph100%30.09 "HgN/A
2:50 AM61 °FPassing clouds.3 mph100%30.09 "HgN/A
2:20 AM61 °FClear.1 mph100%30.12 "Hg10 mi
1:50 AM63 °FSprinkles. Clear.3 mph94%30.12 "HgN/A
1:20 AM63 °FSprinkles. Mostly cloudy.No wind94%30.12 "HgN/A
12:50 AM63 °FOvercast.3 mph94%30.12 "HgN/A
12:20 AM63 °FSprinkles. Mostly cloudy.3 mph94%30.12 "HgN/A
11:50 PM
Wed, Jul 27
63 °FSprinkles. Mostly cloudy.5 mph94%30.12 "HgN/A
11:20 PM61 °FCool.3 mph100%30.12 "Hg4 mi
10:50 PM64 °FMild.3 mph83%30.09 "Hg3 mi
10:20 PM64 °FPassing clouds.3 mph83%30.09 "HgN/A
9:50 PM66 °FBroken clouds.7 mph73%30.09 "HgN/A
9:20 PM70 °FPartly sunny.6 mph69%30.09 "HgN/A
8:50 PM68 °FBroken clouds.No wind88%30.07 "HgN/A
8:20 PM72 °FPassing clouds.2 mph78%30.07 "HgN/A
7:50 PM72 °FPassing clouds.5 mph78%30.04 "HgN/A
7:20 PM72 °FPassing clouds.7 mph78%30.04 "HgN/A
6:50 PM73 °FScattered clouds.6 mph69%30.04 "HgN/A
6:20 PM72 °FPartly sunny.6 mph73%30.04 "HgN/A
5:50 PM72 °FBroken clouds.5 mph78%30.04 "HgN/A
5:20 PM72 °FPartly sunny.7 mph73%30.07 "HgN/A
4:50 PM72 °FScattered clouds.8 mph69%30.04 "HgN/A
4:20 PM75 °FSunny.5 mph69%30.07 "Hg10 mi
3:50 PM72 °FSunny.3 mph73%30.07 "Hg10 mi
3:20 PM68 °FLight rain. Broken clouds.3 mph83%30.07 "HgN/A
2:50 PM70 °FBroken clouds.3 mph69%30.07 "HgN/A
2:20 PM72 °FBroken clouds.7 mph69%30.07 "HgN/A
1:50 PM75 °FBroken clouds.5 mph65%30.07 "HgN/A
1:20 PM75 °FBroken clouds.8 mph69%30.07 "HgN/A
12:50 PM73 °FBroken clouds.3 mph69%30.09 "HgN/A
12:20 PM72 °FPartly sunny.6 mph78%30.09 "HgN/A
11:50 AM73 °FPartly sunny.2 mph74%30.09 "HgN/A
11:20 AM72 °FBroken clouds.2 mph78%30.09 "HgN/A
10:50 AM70 °FPartly sunny.3 mph83%30.09 "HgN/A
10:20 AM68 °FBroken clouds.5 mph88%30.09 "HgN/A
9:50 AM68 °FMore clouds than sun.2 mph83%30.09 "HgN/A
9:20 AM68 °FMostly cloudy.2 mph88%30.09 "HgN/A
8:50 AM66 °FPartly sunny.1 mph94%30.09 "HgN/A
8:20 AM64 °FMostly cloudy.2 mph100%30.09 "Hg4 mi
Weather by CustomWeather, © 2016

See weather overviewHow to use our weather pages